Location: Miss�
(46.9484°N, 0.1922°W)
Time: 03:00:14
(UTC+00:00)

Cosmos 2360 Rocket - Pass Details

Date: 02 March 2021
Orbit: 832 x 846 km, 71.0° (Epoch: 12 April)

Event Time Altitude Azimuth Distance (km) Brightness Sun altitude
Rises 18:52:07 0° 184° (S) 3,373 5.4 -11.7°
Reaches altitude 10° 18:54:38 10° 178° (S) 2,446 4.6 -12.2°
Maximum altitude 18:59:55 44° 108° (ESE) 1,149 2.5 -13.1°
Drops below altitude 10° 19:05:16 10° 38° (NE) 2,471 4.3 -14.0°
Sets 19:07:49 0° 32° (NNE) 3,412 5.1 -14.4°
